Location: Kellogg
(38.0159°N, 90.0546°W)
Time: 14:47:02
(UTC+00:00)

Transit 2A - Pass Details

Date: 21 September 2024
Orbit: 590 x 960 km, 66.7° (Epoch: 07 October)

Event Time Altitude Azimuth Distance (km) Brightness Sun altitude
Rises 06:24:42 0° 343° (NNW) 3,633 10.0 -50.8°
Enters shadow 06:27:56 - 1° (N) 2,771 9.3 -50.7°
Reaches altitude 10° 06:28:28 10° 4° (N) 2,652 - -50.6°
Maximum altitude 06:32:08 16° 41° (NE) 2,195 - -50.5°
Drops below altitude 10° 06:35:41 10° 78° (ENE) 2,537 - -50.3°
Sets 06:39:08 0° 100° (E) 3,399 - -50.1°
